Location: Burtsch�tz
(51.0528°N, 12.1764°E)
Time: 01:45:57
(UTC+00:00)

CZ-4B R/B - Pass Details

Date: 29 October 2020
Orbit: 389 x 462 km, 97.6° (Epoch: 23 November)

Event Time Altitude Azimuth Distance (km) Brightness Sun altitude
Rises 17:06:19 0° 12° (NNE) 2,401 4.9 -12.4°
Reaches altitude 10° 17:08:21 10° 10° (N) 1,516 3.9 -12.8°
Maximum altitude 17:11:35 73° 286° (WNW) 438 1.4 -13.3°
Drops below altitude 10° 17:14:41 10° 201° (SSW) 1,463 4.3 -13.7°
Sets 17:16:38 0° 200° (SSW) 2,307 5.3 -14.0°
